This demonstration page uses our WeatherBlox Daily Observations layout. Learn more.

Left ArrowRight Arrow

36.17497, -115.13722

Hourly Observations for January 2, 2016

Temp ( °F °C ) Dew Point ( °F °C ) Humidity (%) Winds ( mph kmh ) Pressure ( in mb ) Visibility ( mi km ) Precip ( " mm )
12:53 am 00:53 Clear 38 3.3 16 -8.9 41 41 NW 3 6 30.29 1026 10 16 N/A
1:53 am 01:53 Clear 38 3.3 15 -9.4 39 39 NW 3 6 30.29 1026 10 16 N/A
2:53 am 02:53 Clear 36 2.2 15 -9.4 42 42 N N/A 30.28 1026 10 16 N/A
3:53 am 03:53 Clear 37 2.8 14 -10 39 39 N N/A 30.28 1026 10 16 N/A
4:53 am 04:53 Clear 37 2.8 14 -10 39 39 N N/A 30.29 1026 10 16 N/A
5:53 am 05:53 Clear 35 1.7 15 -9.4 44 44 N N/A 30.30 1026 10 16 N/A
6:53 am 06:53 Sunny 34 1.1 16 -8.9 48 48 N 5 7 30.32 1027 10 16 N/A
7:53 am 07:53 Sunny 36 2.2 16 -8.9 44 44 NNW 3 6 30.33 1027 10 16 N/A
8:53 am 08:53 Sunny 44 6.7 15 -9.4 31 31 N 5 7 30.33 1027 10 16 N/A
9:53 am 09:53 Sunny 47 8.3 16 -8.9 29 29 N N/A 30.34 1027 10 16 N/A
10:53 am 10:53 Sunny 47 8.3 16 -8.9 29 29 N N/A 30.32 1027 10 16 N/A
11:53 am 11:53 Sunny 50 10 18 -7.8 28 28 VRB 7 11 30.28 1025 10 16 N/A
12:53 pm 12:53 Sunny 51 10.6 19 -7.2 28 28 SSE 5 7 30.25 1024 10 16 N/A
1:53 pm 13:53 Sunny 53 11.7 21 -6.1 28 28 ESE 8 13 30.22 1024 10 16 N/A
2:53 pm 14:53 Sunny 53 11.7 21 -6.1 28 28 SE 10 17 30.22 1023 10 16 N/A
3:53 pm 15:53 Sunny 52 11.1 21 -6.1 30 30 SSE 7 11 30.21 1023 10 16 N/A
4:53 pm 16:53 Clear 51 10.6 21 -6.1 31 31 SW 6 9 30.21 1023 10 16 N/A
5:53 pm 17:53 Clear 47 8.3 21 -6.1 36 36 N N/A 30.22 1023 10 16 N/A
6:53 pm 18:53 Clear 46 7.8 22 -5.6 38 38 W 3 6 30.24 1024 10 16 N/A
7:53 pm 19:53 Clear 46 7.8 23 -5 40 40 NW 3 6 30.24 1024 10 16 N/A
8:53 pm 20:53 Clear 45 7.2 24 -4.4 44 44 NW 7 11 30.24 1024 10 16 N/A
9:53 pm 21:53 Clear 43 6.1 23 -5 45 45 NW 3 6 30.24 1024 10 16 N/A
10:53 pm 22:53 Clear 43 6.1 23 -5 45 45 WNW 5 7 30.24 1024 10 16 N/A
11:53 pm 23:53 Clear 43 6.1 24 -4.4 47 47 N N/A 30.22 1023 10 16 N/A

Powered by AerisWeather